TimeEDT,TemperatureF,Dew PointF,Humidity,Sea Level PressureIn,VisibilityMPH,Wind Direction,Wind SpeedMPH,Gust SpeedMPH,PrecipitationIn,Events,Conditions,WindDirDegrees,DateUTC
12:15 AM,66.2,66.2,100,30.06,10.0,NE,3.5,-,N/A,,Scattered Clouds,50,2012-10-25 04:15:00
1:15 AM,66.2,66.2,100,30.05,10.0,Calm,Calm,-,N/A,,Mostly Cloudy,0,2012-10-25 05:15:00
1:35 AM,66.2,66.2,100,30.05,10.0,NE,3.5,-,N/A,,Scattered Clouds,50,2012-10-25 05:35:00
1:55 AM,66.2,66.2,100,30.05,10.0,NE,3.5,-,N/A,,Clear,40,2012-10-25 05:55:00
2:15 AM,66.2,66.2,100,30.04,10.0,NE,4.6,-,N/A,,Clear,50,2012-10-25 06:15:00
2:35 AM,66.2,66.2,100,30.03,10.0,NE,3.5,-,N/A,,Mostly Cloudy,50,2012-10-25 06:35:00
2:55 AM,66.2,66.2,100,30.02,7.0,Calm,Calm,-,N/A,,Scattered Clouds,0,2012-10-25 06:55:00
3:35 AM,66.2,66.2,100,30.01,7.0,Calm,Calm,-,N/A,,Clear,0,2012-10-25 07:35:00
3:55 AM,66.2,66.2,100,30.01,7.0,Calm,Calm,-,N/A,,Clear,0,2012-10-25 07:55:00
4:15 AM,66.2,66.2,100,30.01,5.0,ENE,3.5,-,N/A,,Scattered Clouds,60,2012-10-25 08:15:00
4:35 AM,66.2,66.2,100,30.01,7.0,NE,3.5,-,N/A,,Mostly Cloudy,50,2012-10-25 08:35:00
4:55 AM,66.2,66.2,100,30.01,7.0,Calm,Calm,-,N/A,,Mostly Cloudy,0,2012-10-25 08:55:00
5:15 AM,66.2,66.2,100,30.01,5.0,NE,3.5,-,N/A,,Mostly Cloudy,50,2012-10-25 09:15:00
5:35 AM,66.2,66.2,100,30.02,5.0,Calm,Calm,-,N/A,,Mostly Cloudy,0,2012-10-25 09:35:00
5:55 AM,66.2,66.2,100,30.02,4.0,Calm,Calm,-,N/A,,Mostly Cloudy,0,2012-10-25 09:55:00
6:15 AM,66.2,66.2,100,30.03,4.0,Calm,Calm,-,N/A,,Overcast,0,2012-10-25 10:15:00
6:35 AM,66.2,66.2,100,30.03,4.0,NE,3.5,-,N/A,,Overcast,40,2012-10-25 10:35:00
6:55 AM,66.2,66.2,100,30.03,5.0,NE,4.6,-,N/A,,Overcast,50,2012-10-25 10:55:00
7:15 AM,66.2,66.2,100,30.03,5.0,ENE,4.6,-,N/A,,Overcast,60,2012-10-25 11:15:00
7:35 AM,68.0,68.0,100,30.03,4.0,ENE,4.6,-,N/A,,Overcast,70,2012-10-25 11:35:00
7:55 AM,68.0,68.0,100,30.03,3.0,ENE,4.6,-,N/A,,Overcast,60,2012-10-25 11:55:00
8:15 AM,68.0,68.0,100,30.04,4.0,ENE,3.5,-,N/A,,Overcast,70,2012-10-25 12:15:00
8:55 AM,68.0,68.0,100,30.04,4.0,NE,3.5,-,N/A,,Overcast,50,2012-10-25 12:55:00
9:15 AM,68.0,68.0,100,30.04,7.0,NE,3.5,-,N/A,,Mostly Cloudy,50,2012-10-25 13:15:00
9:35 AM,69.8,69.8,100,30.05,10.0,NE,4.6,-,N/A,,Scattered Clouds,40,2012-10-25 13:35:00
9:55 AM,71.6,69.8,94,30.04,10.0,NE,5.8,-,N/A,,Clear,50,2012-10-25 13:55:00
10:15 AM,73.4,71.6,94,30.05,10.0,ENE,4.6,-,N/A,,Clear,60,2012-10-25 14:15:00
10:35 AM,75.2,71.6,89,30.04,10.0,NE,4.6,-,N/A,,Clear,40,2012-10-25 14:35:00
10:55 AM,78.8,71.6,78,30.04,10.0,East,6.9,-,N/A,,Clear,80,2012-10-25 14:55:00
11:15 AM,80.6,71.6,74,30.04,10.0,ENE,10.4,-,N/A,,Clear,70,2012-10-25 15:15:00
11:55 AM,80.6,69.8,70,30.03,10.0,East,12.7,19.6,N/A,,Scattered Clouds,90,2012-10-25 15:55:00
12:15 PM,80.6,69.8,70,30.03,10.0,ESE,12.7,-,N/A,,Scattered Clouds,110,2012-10-25 16:15:00
12:35 PM,80.6,69.8,70,30.02,10.0,East,10.4,-,N/A,,Scattered Clouds,90,2012-10-25 16:35:00
12:55 PM,82.4,69.8,66,30.01,10.0,East,10.4,-,N/A,,Scattered Clouds,80,2012-10-25 16:55:00
1:15 PM,82.4,69.8,66,30.00,10.0,East,11.5,23.0,N/A,,Scattered Clouds,100,2012-10-25 17:15:00
1:35 PM,82.4,68.0,62,29.99,10.0,ESE,13.8,-,N/A,,Mostly Cloudy,110,2012-10-25 17:35:00
1:55 PM,80.6,69.8,70,29.99,10.0,East,11.5,-,N/A,,Mostly Cloudy,100,2012-10-25 17:55:00
2:15 PM,82.4,69.8,66,29.98,10.0,ESE,12.7,17.3,N/A,,Scattered Clouds,110,2012-10-25 18:15:00
2:35 PM,82.4,69.8,66,29.98,10.0,ESE,11.5,-,N/A,,Scattered Clouds,120,2012-10-25 18:35:00
2:55 PM,80.6,68.0,65,29.98,10.0,East,10.4,-,N/A,,Mostly Cloudy,100,2012-10-25 18:55:00
3:15 PM,82.4,68.0,62,29.98,10.0,ESE,16.1,21.9,N/A,,Scattered Clouds,110,2012-10-25 19:15:00
3:35 PM,82.4,68.0,62,29.98,10.0,ESE,12.7,17.3,N/A,,Scattered Clouds,110,2012-10-25 19:35:00
3:55 PM,82.4,68.0,62,29.98,10.0,East,13.8,19.6,N/A,,Scattered Clouds,100,2012-10-25 19:55:00
4:15 PM,82.4,68.0,62,29.98,10.0,ESE,10.4,-,N/A,,Scattered Clouds,110,2012-10-25 20:15:00
4:35 PM,80.6,68.0,65,29.98,10.0,East,12.7,20.7,N/A,,Mostly Cloudy,100,2012-10-25 20:35:00
4:55 PM,80.6,68.0,65,29.98,10.0,ESE,11.5,-,N/A,,Scattered Clouds,110,2012-10-25 20:55:00
5:35 PM,78.8,68.0,69,29.98,10.0,ESE,11.5,20.7,N/A,,Clear,110,2012-10-25 21:35:00
5:55 PM,78.8,68.0,69,29.98,10.0,ESE,11.5,-,N/A,,Clear,110,2012-10-25 21:55:00
6:15 PM,78.8,69.8,74,29.99,10.0,ESE,5.8,-,N/A,,Clear,110,2012-10-25 22:15:00
6:35 PM,77.0,69.8,78,30.00,10.0,East,5.8,-,N/A,,Clear,90,2012-10-25 22:35:00
6:55 PM,75.2,69.8,83,30.00,10.0,East,5.8,-,N/A,,Clear,80,2012-10-25 22:55:00
7:15 PM,73.4,69.8,88,30.00,10.0,ENE,5.8,-,N/A,,Clear,70,2012-10-25 23:15:00
7:35 PM,73.4,69.8,88,30.00,10.0,ENE,4.6,-,N/A,,Clear,60,2012-10-25 23:35:00
7:55 PM,71.6,69.8,94,30.00,10.0,NE,5.8,-,N/A,,Clear,50,2012-10-25 23:55:00
8:15 PM,71.6,69.8,94,30.00,10.0,ENE,6.9,-,N/A,,Clear,60,2012-10-26 00:15:00
8:35 PM,71.6,69.8,94,30.00,10.0,NE,3.5,-,N/A,,Clear,50,2012-10-26 00:35:00
8:55 PM,71.6,69.8,94,30.00,10.0,East,5.8,-,N/A,,Clear,80,2012-10-26 00:55:00
9:15 PM,71.6,69.8,94,30.00,10.0,ENE,5.8,-,N/A,,Clear,70,2012-10-26 01:15:00
9:35 PM,71.6,69.8,94,30.00,10.0,ENE,5.8,-,N/A,,Clear,60,2012-10-26 01:35:00
9:55 PM,69.8,69.8,100,30.00,10.0,ENE,4.6,-,N/A,,Clear,60,2012-10-26 01:55:00
10:15 PM,69.8,69.8,100,29.99,10.0,ENE,5.8,-,N/A,,Clear,70,2012-10-26 02:15:00
10:35 PM,69.8,69.8,100,29.99,10.0,East,8.1,-,N/A,,Clear,80,2012-10-26 02:35:00
10:55 PM,69.8,69.8,100,29.99,10.0,ENE,5.8,-,N/A,,Clear,70,2012-10-26 02:55:00
11:15 PM,69.8,69.8,100,29.98,10.0,ENE,6.9,-,N/A,,Clear,60,2012-10-26 03:15:00
11:55 PM,69.8,69.8,100,29.98,10.0,ENE,8.1,-,N/A,,Scattered Clouds,70,2012-10-26 03:55:00